Year,Month,Day,Hour,Minute,Value (Times are PST for temperature in C)
2018,06,17,00,00,14.90
2018,06,17,00,01,14.90
2018,06,17,00,02,14.80
2018,06,17,00,03,14.80
2018,06,17,00,04,14.80
2018,06,17,00,05,14.70
2018,06,17,00,06,14.70
2018,06,17,00,07,14.70
2018,06,17,00,08,14.70
2018,06,17,00,09,14.60
2018,06,17,00,10,14.60
2018,06,17,00,11,14.60
2018,06,17,00,12,14.50
2018,06,17,00,13,14.50
2018,06,17,00,14,14.40
2018,06,17,00,15,14.40
2018,06,17,00,16,14.30
2018,06,17,00,17,14.30
2018,06,17,00,18,14.30
2018,06,17,00,19,14.30
2018,06,17,00,20,14.20
2018,06,17,00,21,14.20
2018,06,17,00,22,14.20
2018,06,17,00,23,14.20
2018,06,17,00,24,14.20
2018,06,17,00,25,14.10
2018,06,17,00,26,14.10
2018,06,17,00,27,14.10
2018,06,17,00,28,14.10
2018,06,17,00,29,14.00
2018,06,17,00,30,14.00
2018,06,17,00,31,13.90
2018,06,17,00,32,13.90
2018,06,17,00,33,13.90
2018,06,17,00,34,13.80
2018,06,17,00,35,13.80
2018,06,17,00,36,13.80
2018,06,17,00,37,13.70
2018,06,17,00,38,13.70
2018,06,17,00,39,13.70
2018,06,17,00,40,13.70
2018,06,17,00,41,13.70
2018,06,17,00,42,13.70
2018,06,17,00,43,13.70
2018,06,17,00,44,13.70
2018,06,17,00,45,13.70
2018,06,17,00,46,13.70
2018,06,17,00,47,13.70
2018,06,17,00,48,13.70
2018,06,17,00,49,13.70
2018,06,17,00,50,13.60
2018,06,17,00,51,13.60
2018,06,17,00,52,13.60
2018,06,17,00,53,13.60
2018,06,17,00,54,13.60
2018,06,17,00,55,13.50
2018,06,17,00,56,13.50
2018,06,17,00,57,13.50
2018,06,17,00,58,13.50
2018,06,17,00,59,13.50
2018,06,17,01,00,13.50
2018,06,17,01,01,13.50
2018,06,17,01,02,13.50
2018,06,17,01,03,13.50
2018,06,17,01,04,13.50
2018,06,17,01,05,13.40
2018,06,17,01,06,13.40
2018,06,17,01,07,13.40
2018,06,17,01,08,13.40
2018,06,17,01,09,13.40
2018,06,17,01,10,13.30
2018,06,17,01,11,13.30
2018,06,17,01,12,13.20
2018,06,17,01,13,13.20
2018,06,17,01,14,13.20
2018,06,17,01,15,13.10
2018,06,17,01,16,13.10
2018,06,17,01,17,13.10
2018,06,17,01,18,13.10
2018,06,17,01,19,13.00
2018,06,17,01,20,13.00
2018,06,17,01,21,12.90
2018,06,17,01,22,12.90
2018,06,17,01,23,12.90
2018,06,17,01,24,12.90
2018,06,17,01,25,12.80
2018,06,17,01,26,12.80
2018,06,17,01,27,12.80
2018,06,17,01,28,12.70
2018,06,17,01,29,12.70
2018,06,17,01,30,12.60
2018,06,17,01,31,12.50
2018,06,17,01,32,12.50
2018,06,17,01,33,12.40
2018,06,17,01,34,12.40
2018,06,17,01,35,12.30
2018,06,17,01,36,12.30
2018,06,17,01,37,12.30
2018,06,17,01,38,12.20
2018,06,17,01,39,12.20
2018,06,17,01,40,12.20
2018,06,17,01,41,12.20
2018,06,17,01,42,12.20
2018,06,17,01,43,12.20
2018,06,17,01,44,12.10
2018,06,17,01,45,12.10
2018,06,17,01,46,12.10
2018,06,17,01,47,12.10
2018,06,17,01,48,12.10
2018,06,17,01,49,12.00
2018,06,17,01,50,12.00
2018,06,17,01,51,12.00
2018,06,17,01,52,12.00
2018,06,17,01,53,12.00
2018,06,17,01,54,12.00
2018,06,17,01,55,11.90
2018,06,17,01,56,11.90
2018,06,17,01,57,11.90
2018,06,17,01,58,11.90
2018,06,17,01,59,11.80
2018,06,17,02,00,11.80
2018,06,17,02,01,11.80
2018,06,17,02,02,11.80
2018,06,17,02,03,11.80
2018,06,17,02,04,11.80
2018,06,17,02,05,11.80
2018,06,17,02,06,11.80
2018,06,17,02,07,11.80
2018,06,17,02,08,11.80
2018,06,17,02,09,11.80
2018,06,17,02,10,11.70
2018,06,17,02,11,11.70
2018,06,17,02,12,11.70
2018,06,17,02,13,11.70
2018,06,17,02,14,11.70
2018,06,17,02,15,11.60
2018,06,17,02,16,11.60
2018,06,17,02,17,11.60
2018,06,17,02,18,11.60
2018,06,17,02,19,11.50
2018,06,17,02,20,11.50
2018,06,17,02,21,11.50
2018,06,17,02,22,11.40
2018,06,17,02,23,11.40
2018,06,17,02,24,11.40
2018,06,17,02,25,11.30
2018,06,17,02,26,11.30
2018,06,17,02,27,11.30
2018,06,17,02,28,11.30
2018,06,17,02,29,11.30
2018,06,17,02,30,11.20
2018,06,17,02,31,11.20
2018,06,17,02,32,11.10
2018,06,17,02,33,11.10
2018,06,17,02,34,11.00
2018,06,17,02,35,11.00
2018,06,17,02,36,11.00
2018,06,17,02,37,10.90
2018,06,17,02,38,10.90
2018,06,17,02,39,10.90
2018,06,17,02,40,10.80
2018,06,17,02,41,10.80
2018,06,17,02,42,10.80
2018,06,17,02,43,10.80
2018,06,17,02,44,10.80
2018,06,17,02,45,10.80
2018,06,17,02,46,10.70
2018,06,17,02,47,10.70
2018,06,17,02,48,10.70
2018,06,17,02,49,10.70
2018,06,17,02,50,10.70
2018,06,17,02,51,10.70
2018,06,17,02,52,10.60
2018,06,17,02,53,10.60
2018,06,17,02,54,10.60
2018,06,17,02,55,10.60
2018,06,17,02,56,10.60
2018,06,17,02,57,10.50
2018,06,17,02,58,10.50
2018,06,17,02,59,10.50
2018,06,17,03,00,10.40
2018,06,17,03,01,10.40
2018,06,17,03,02,10.40
2018,06,17,03,03,10.40
2018,06,17,03,04,10.40
2018,06,17,03,05,10.30
2018,06,17,03,06,10.30
2018,06,17,03,07,10.30
2018,06,17,03,08,10.30
2018,06,17,03,09,10.30
2018,06,17,03,10,10.30
2018,06,17,03,11,10.30
2018,06,17,03,12,10.20
2018,06,17,03,13,10.20
2018,06,17,03,14,10.20
2018,06,17,03,15,10.20
2018,06,17,03,16,10.20
2018,06,17,03,17,10.10
2018,06,17,03,18,10.10
2018,06,17,03,19,10.10
2018,06,17,03,20,10.10
2018,06,17,03,21,10.10
2018,06,17,03,22,10.10
2018,06,17,03,23,10.00
2018,06,17,03,24,10.00
2018,06,17,03,25,10.00
2018,06,17,03,26,10.00
2018,06,17,03,27,10.00
2018,06,17,03,28,10.00
2018,06,17,03,29,9.90
2018,06,17,03,30,9.90
2018,06,17,03,31,9.90
2018,06,17,03,32,9.90
2018,06,17,03,33,9.90
2018,06,17,03,34,9.90
2018,06,17,03,35,9.90
2018,06,17,03,36,9.80
2018,06,17,03,37,9.80
2018,06,17,03,38,9.80
2018,06,17,03,39,9.80
2018,06,17,03,40,9.80
2018,06,17,03,41,9.80
2018,06,17,03,42,9.80
2018,06,17,03,43,9.80
2018,06,17,03,44,9.80
2018,06,17,03,45,9.80
2018,06,17,03,46,9.80
2018,06,17,03,47,9.80
2018,06,17,03,48,9.80
2018,06,17,03,49,9.80
2018,06,17,03,50,9.90
2018,06,17,03,51,9.90
2018,06,17,03,52,9.90
2018,06,17,03,53,9.90
2018,06,17,03,54,9.90
2018,06,17,03,55,9.90
2018,06,17,03,56,9.90
2018,06,17,03,57,9.90
2018,06,17,03,58,9.90
2018,06,17,03,59,9.90
2018,06,17,04,00,9.90
2018,06,17,04,01,10.00
2018,06,17,04,02,10.00
2018,06,17,04,03,10.00
2018,06,17,04,04,10.00
2018,06,17,04,05,10.00
2018,06,17,04,06,10.00
2018,06,17,04,07,9.90
2018,06,17,04,08,9.90
2018,06,17,04,09,9.90
2018,06,17,04,10,9.90
2018,06,17,04,11,9.90
2018,06,17,04,12,9.90
2018,06,17,04,13,9.90
2018,06,17,04,14,9.90
2018,06,17,04,15,9.90
2018,06,17,04,16,9.90
2018,06,17,04,17,9.90
2018,06,17,04,18,9.90
2018,06,17,04,19,9.90
2018,06,17,04,20,9.90
2018,06,17,04,21,9.90
2018,06,17,04,22,9.90
2018,06,17,04,23,9.80
2018,06,17,04,24,9.80
2018,06,17,04,25,9.80
2018,06,17,04,26,9.80
2018,06,17,04,27,9.80
2018,06,17,04,28,9.80
2018,06,17,04,29,9.80
2018,06,17,04,30,9.90
2018,06,17,04,31,9.90
2018,06,17,04,32,9.90
2018,06,17,04,33,9.90
2018,06,17,04,34,9.90
2018,06,17,04,35,9.90
2018,06,17,04,36,9.90
2018,06,17,04,37,9.90
2018,06,17,04,38,10.00
2018,06,17,04,39,10.00
2018,06,17,04,40,10.00
2018,06,17,04,41,10.00
2018,06,17,04,42,10.00
2018,06,17,04,43,10.00
2018,06,17,04,44,10.00
2018,06,17,04,45,10.00
2018,06,17,04,46,10.00
2018,06,17,04,47,10.00
2018,06,17,04,48,10.00
2018,06,17,04,49,10.00
2018,06,17,04,50,10.00
2018,06,17,04,51,10.00
2018,06,17,04,52,10.00
2018,06,17,04,53,10.00
2018,06,17,04,54,10.00
2018,06,17,04,55,10.00
2018,06,17,04,56,10.00
2018,06,17,04,57,10.00
2018,06,17,04,58,10.10
2018,06,17,04,59,10.10
2018,06,17,05,00,10.00
2018,06,17,05,01,10.10
2018,06,17,05,02,10.10
2018,06,17,05,03,10.00
2018,06,17,05,04,10.00
2018,06,17,05,05,10.10
2018,06,17,05,06,10.10
2018,06,17,05,07,10.10
2018,06,17,05,08,10.10
2018,06,17,05,09,10.10
2018,06,17,05,10,10.00
2018,06,17,05,11,10.10
2018,06,17,05,12,10.10
2018,06,17,05,13,10.10
2018,06,17,05,14,10.10
2018,06,17,05,15,10.10
2018,06,17,05,16,10.10
2018,06,17,05,17,10.10
2018,06,17,05,18,10.10
2018,06,17,05,19,10.10
2018,06,17,05,20,10.10
2018,06,17,05,21,10.10
2018,06,17,05,22,10.10
2018,06,17,05,23,10.10
2018,06,17,05,24,10.10
2018,06,17,05,25,10.10
2018,06,17,05,26,10.10
2018,06,17,05,27,10.10
2018,06,17,05,28,10.10
2018,06,17,05,29,10.10
2018,06,17,05,30,10.10
2018,06,17,05,31,10.10
2018,06,17,05,32,10.10
2018,06,17,05,33,10.10
2018,06,17,05,34,10.10
2018,06,17,05,35,10.10
2018,06,17,05,36,10.20
2018,06,17,05,37,10.20
2018,06,17,05,38,10.20
2018,06,17,05,39,10.20
2018,06,17,05,40,10.20
2018,06,17,05,41,10.20
2018,06,17,05,42,10.20
2018,06,17,05,43,10.20
2018,06,17,05,44,10.20
2018,06,17,05,45,10.20
2018,06,17,05,46,10.20
2018,06,17,05,47,10.20
2018,06,17,05,48,10.20
2018,06,17,05,49,10.20
2018,06,17,05,50,10.20
2018,06,17,05,51,10.20
2018,06,17,05,52,10.20
2018,06,17,05,53,10.10
2018,06,17,05,54,10.10
2018,06,17,05,55,10.10
2018,06,17,05,56,10.10
2018,06,17,05,57,10.10
2018,06,17,05,58,10.10
2018,06,17,05,59,10.10
2018,06,17,06,00,10.10
2018,06,17,06,01,10.20
2018,06,17,06,02,10.20
2018,06,17,06,03,10.20
2018,06,17,06,04,10.20
2018,06,17,06,05,10.20
2018,06,17,06,06,10.20
2018,06,17,06,07,10.20
2018,06,17,06,08,10.20
2018,06,17,06,09,10.20
2018,06,17,06,10,10.20
2018,06,17,06,11,10.20
2018,06,17,06,12,10.20
2018,06,17,06,13,10.20
2018,06,17,06,14,10.20
2018,06,17,06,15,10.20
2018,06,17,06,16,10.30
2018,06,17,06,17,10.30
2018,06,17,06,18,10.30
2018,06,17,06,19,10.30
2018,06,17,06,20,10.20
2018,06,17,06,21,10.20
2018,06,17,06,22,10.20
2018,06,17,06,23,10.20
2018,06,17,06,24,10.20
2018,06,17,06,25,10.20
2018,06,17,06,26,10.20
2018,06,17,06,27,10.20
2018,06,17,06,28,10.20
2018,06,17,06,29,10.20
2018,06,17,06,30,10.20
2018,06,17,06,31,10.20
2018,06,17,06,32,10.20
2018,06,17,06,33,10.20
2018,06,17,06,34,10.20
2018,06,17,06,35,10.20
2018,06,17,06,36,10.30
2018,06,17,06,37,10.30
2018,06,17,06,38,10.30
2018,06,17,06,39,10.30
2018,06,17,06,40,10.30
2018,06,17,06,41,10.30
2018,06,17,06,42,10.30
2018,06,17,06,43,10.30
2018,06,17,06,44,10.30
2018,06,17,06,45,10.30
2018,06,17,06,46,10.30
2018,06,17,06,47,10.30
2018,06,17,06,48,10.30
2018,06,17,06,49,10.30
2018,06,17,06,50,10.30
2018,06,17,06,51,10.30
2018,06,17,06,52,10.30
2018,06,17,06,53,10.30
2018,06,17,06,54,10.30
2018,06,17,06,55,10.30
2018,06,17,06,56,10.30
2018,06,17,06,57,10.30
2018,06,17,06,58,10.30
2018,06,17,06,59,10.30
2018,06,17,07,00,10.30
2018,06,17,07,01,10.30
2018,06,17,07,02,10.30
2018,06,17,07,03,10.30
2018,06,17,07,04,10.30
2018,06,17,07,05,10.30
2018,06,17,07,06,10.40
2018,06,17,07,07,10.40
2018,06,17,07,08,10.40
2018,06,17,07,09,10.40
2018,06,17,07,10,10.40
2018,06,17,07,11,10.40
2018,06,17,07,12,10.40
2018,06,17,07,13,10.40
2018,06,17,07,14,10.40
2018,06,17,07,15,10.40
2018,06,17,07,16,10.40
2018,06,17,07,17,10.40
2018,06,17,07,18,10.40
2018,06,17,07,19,10.40
2018,06,17,07,20,10.40
2018,06,17,07,21,10.40
2018,06,17,07,22,10.40
2018,06,17,07,23,10.40
2018,06,17,07,24,10.40
2018,06,17,07,25,10.40
2018,06,17,07,26,10.40
2018,06,17,07,27,10.40
2018,06,17,07,28,10.40
2018,06,17,07,29,10.40
2018,06,17,07,30,10.40
2018,06,17,07,31,10.40
2018,06,17,07,32,10.40
2018,06,17,07,33,10.40
2018,06,17,07,34,10.40
2018,06,17,07,35,10.40
2018,06,17,07,36,10.40
2018,06,17,07,37,10.40
2018,06,17,07,38,10.40
2018,06,17,07,39,10.50
2018,06,17,07,40,10.60
2018,06,17,07,41,10.60
2018,06,17,07,42,10.70
2018,06,17,07,43,10.80
2018,06,17,07,44,10.90
2018,06,17,07,45,11.00
2018,06,17,07,46,11.00
2018,06,17,07,47,11.10
2018,06,17,07,48,11.20
2018,06,17,07,49,11.20
2018,06,17,07,50,11.30
2018,06,17,07,51,11.40
2018,06,17,07,52,11.40
2018,06,17,07,53,11.50
2018,06,17,07,54,11.60
2018,06,17,07,55,11.60
2018,06,17,07,56,11.70
2018,06,17,07,57,11.70
2018,06,17,07,58,11.70
2018,06,17,07,59,11.80
2018,06,17,08,00,11.80
2018,06,17,08,01,11.80
2018,06,17,08,02,11.80
2018,06,17,08,03,11.80
2018,06,17,08,04,11.80
2018,06,17,08,05,11.80
2018,06,17,08,06,11.80
2018,06,17,08,07,11.80
2018,06,17,08,08,11.80
2018,06,17,08,09,11.80
2018,06,17,08,10,11.80
2018,06,17,08,11,11.80
2018,06,17,08,12,11.80
2018,06,17,08,13,11.80
2018,06,17,08,14,11.80
2018,06,17,08,15,11.80
2018,06,17,08,16,11.80
2018,06,17,08,17,11.80
2018,06,17,08,18,11.80
2018,06,17,08,19,11.80
2018,06,17,08,20,11.80
2018,06,17,08,21,11.80
2018,06,17,08,22,11.80
2018,06,17,08,23,11.80
2018,06,17,08,24,11.80
2018,06,17,08,25,11.80
2018,06,17,08,26,11.80
2018,06,17,08,27,11.90
2018,06,17,08,28,11.90
2018,06,17,08,29,11.90
2018,06,17,08,30,11.90
2018,06,17,08,31,11.90
2018,06,17,08,32,11.90
2018,06,17,08,33,11.90
2018,06,17,08,34,11.90
2018,06,17,08,35,11.90
2018,06,17,08,36,11.90
2018,06,17,08,37,11.90
2018,06,17,08,38,11.90
2018,06,17,08,39,11.90
2018,06,17,08,40,11.90
2018,06,17,08,41,11.90
2018,06,17,08,42,11.90
2018,06,17,08,43,11.90
2018,06,17,08,44,11.90
2018,06,17,08,45,11.90
2018,06,17,08,46,11.90
2018,06,17,08,47,11.90
2018,06,17,08,48,11.90
2018,06,17,08,49,11.90
2018,06,17,08,50,11.90
2018,06,17,08,51,11.90
2018,06,17,08,52,11.90
2018,06,17,08,53,12.00
2018,06,17,08,54,12.00
2018,06,17,08,55,12.00
2018,06,17,08,56,12.00
2018,06,17,08,57,12.10
2018,06,17,08,58,12.10
2018,06,17,08,59,12.10
2018,06,17,09,00,12.10
2018,06,17,09,01,12.20
2018,06,17,09,02,12.20
2018,06,17,09,03,12.20
2018,06,17,09,04,12.20
2018,06,17,09,05,12.20
2018,06,17,09,06,12.20
2018,06,17,09,07,12.30
2018,06,17,09,08,12.30
2018,06,17,09,09,12.30
2018,06,17,09,10,12.30
2018,06,17,09,11,12.40
2018,06,17,09,12,12.40
2018,06,17,09,13,12.40
2018,06,17,09,14,12.40
2018,06,17,09,15,12.50
2018,06,17,09,16,12.50
2018,06,17,09,17,12.50
2018,06,17,09,18,12.50
2018,06,17,09,19,12.50
2018,06,17,09,20,12.50
2018,06,17,09,21,12.60
2018,06,17,09,22,12.50
2018,06,17,09,23,12.60
2018,06,17,09,24,12.60
2018,06,17,09,25,12.60
2018,06,17,09,26,12.60
2018,06,17,09,27,12.60
2018,06,17,09,28,12.60
2018,06,17,09,29,12.60
2018,06,17,09,30,12.60
2018,06,17,09,31,12.60
2018,06,17,09,32,12.60
2018,06,17,09,33,12.60
2018,06,17,09,34,12.60
2018,06,17,09,35,12.60
2018,06,17,09,36,12.60
2018,06,17,09,37,12.70
2018,06,17,09,38,12.70
2018,06,17,09,39,12.70
2018,06,17,09,40,12.70
2018,06,17,09,41,12.70
2018,06,17,09,42,12.70
2018,06,17,09,43,12.80
2018,06,17,09,44,12.80
2018,06,17,09,45,12.80
2018,06,17,09,46,12.80
2018,06,17,09,47,12.80
2018,06,17,09,48,12.80
2018,06,17,09,49,12.80
2018,06,17,09,50,12.80
2018,06,17,09,51,12.80
2018,06,17,09,52,12.80
2018,06,17,09,53,12.80
2018,06,17,09,54,12.80
2018,06,17,09,55,12.80
2018,06,17,09,56,12.80
2018,06,17,09,57,12.80
2018,06,17,09,58,12.80
2018,06,17,09,59,12.80
2018,06,17,10,00,12.80
2018,06,17,10,01,12.90
2018,06,17,10,02,12.90
2018,06,17,10,03,12.90
2018,06,17,10,04,12.90
2018,06,17,10,05,13.00
2018,06,17,10,06,13.00
2018,06,17,10,07,13.10
2018,06,17,10,08,13.10
2018,06,17,10,09,13.20
2018,06,17,10,10,13.30
2018,06,17,10,11,13.30
2018,06,17,10,12,13.40
2018,06,17,10,13,13.50
2018,06,17,10,14,13.50
2018,06,17,10,15,13.60
2018,06,17,10,16,13.70
2018,06,17,10,17,13.80
2018,06,17,10,18,13.90
2018,06,17,10,19,14.00
2018,06,17,10,20,14.10
2018,06,17,10,21,14.10
2018,06,17,10,22,14.20
2018,06,17,10,23,14.30
2018,06,17,10,24,14.40
2018,06,17,10,25,14.50
2018,06,17,10,26,14.50
2018,06,17,10,27,14.50
2018,06,17,10,28,14.50
2018,06,17,10,29,14.60
2018,06,17,10,30,14.50
2018,06,17,10,31,14.60
2018,06,17,10,32,14.60
2018,06,17,10,33,14.60
2018,06,17,10,34,14.60
2018,06,17,10,35,14.70
2018,06,17,10,36,14.70
2018,06,17,10,37,14.70
2018,06,17,10,38,14.70
2018,06,17,10,39,14.60
2018,06,17,10,40,14.60
2018,06,17,10,41,14.60
2018,06,17,10,42,14.60
2018,06,17,10,43,14.70
2018,06,17,10,44,14.70
2018,06,17,10,45,14.70
2018,06,17,10,46,14.70
2018,06,17,10,47,14.80
2018,06,17,10,48,14.80
2018,06,17,10,49,14.80
2018,06,17,10,50,14.80
2018,06,17,10,51,14.80
2018,06,17,10,52,14.80
2018,06,17,10,53,14.80
2018,06,17,10,54,14.80
2018,06,17,10,55,14.80
2018,06,17,10,56,14.80
2018,06,17,10,57,14.80
2018,06,17,10,58,14.90
2018,06,17,10,59,14.90
2018,06,17,11,00,15.00
2018,06,17,11,01,15.00
2018,06,17,11,02,15.10
2018,06,17,11,03,15.10
2018,06,17,11,04,15.10
2018,06,17,11,05,15.20
2018,06,17,11,06,15.20
2018,06,17,11,07,15.30
2018,06,17,11,08,15.30
2018,06,17,11,09,15.30
2018,06,17,11,10,15.40
2018,06,17,11,11,15.40
2018,06,17,11,12,15.50
2018,06,17,11,13,15.50
2018,06,17,11,14,15.60
2018,06,17,11,15,15.60
2018,06,17,11,16,15.70
2018,06,17,11,17,15.70
2018,06,17,11,18,15.80
2018,06,17,11,19,15.90
2018,06,17,11,20,15.90
2018,06,17,11,21,16.00
2018,06,17,11,22,16.10
2018,06,17,11,23,16.20
2018,06,17,11,24,16.30
2018,06,17,11,25,16.40
2018,06,17,11,26,16.50
2018,06,17,11,27,16.60
2018,06,17,11,28,16.60
2018,06,17,11,29,16.70
2018,06,17,11,30,16.80
2018,06,17,11,31,16.90
2018,06,17,11,32,16.90
2018,06,17,11,33,17.00
2018,06,17,11,34,17.10
2018,06,17,11,35,17.20
2018,06,17,11,36,17.30
2018,06,17,11,37,17.30
2018,06,17,11,38,17.40
2018,06,17,11,39,17.40
2018,06,17,11,40,17.50
2018,06,17,11,41,17.50
2018,06,17,11,42,17.50
2018,06,17,11,43,17.50
2018,06,17,11,44,17.50
2018,06,17,11,45,17.60
2018,06,17,11,46,17.60
2018,06,17,11,47,17.70
2018,06,17,11,48,17.80
2018,06,17,11,49,17.80
2018,06,17,11,50,18.00
2018,06,17,11,51,18.10
2018,06,17,11,52,18.20
2018,06,17,11,53,18.30
2018,06,17,11,54,18.40
2018,06,17,11,55,18.40
2018,06,17,11,56,18.50
2018,06,17,11,57,18.60
2018,06,17,11,58,18.60
2018,06,17,11,59,18.70
2018,06,17,12,00,18.70
2018,06,17,12,01,18.80
2018,06,17,12,02,18.80
2018,06,17,12,03,18.80
2018,06,17,12,04,18.90
2018,06,17,12,05,18.90
2018,06,17,12,06,18.90
2018,06,17,12,07,18.90
2018,06,17,12,08,18.90
2018,06,17,12,09,18.90
2018,06,17,12,10,18.90
2018,06,17,12,11,18.90
2018,06,17,12,12,18.90
2018,06,17,12,13,19.00
2018,06,17,12,14,19.00
2018,06,17,12,15,18.90
2018,06,17,12,16,18.90
2018,06,17,12,17,18.80
2018,06,17,12,18,18.70
2018,06,17,12,19,18.70
2018,06,17,12,20,18.60
2018,06,17,12,21,18.60
2018,06,17,12,22,18.60
2018,06,17,12,23,18.70
2018,06,17,12,24,18.70
2018,06,17,12,25,18.70
2018,06,17,12,26,18.70
2018,06,17,12,27,18.80
2018,06,17,12,28,18.80
2018,06,17,12,29,18.80
2018,06,17,12,30,18.90
2018,06,17,12,31,18.90
2018,06,17,12,32,18.90
2018,06,17,12,33,19.00
2018,06,17,12,34,19.00
2018,06,17,12,35,19.10
2018,06,17,12,36,19.10
2018,06,17,12,37,19.20
2018,06,17,12,38,19.30
2018,06,17,12,39,19.40
2018,06,17,12,40,19.50
2018,06,17,12,41,19.50
2018,06,17,12,42,19.60
2018,06,17,12,43,19.60
2018,06,17,12,44,19.70
2018,06,17,12,45,19.70
2018,06,17,12,46,19.80
2018,06,17,12,47,19.80
2018,06,17,12,48,19.90
2018,06,17,12,49,20.00
2018,06,17,12,50,20.20
2018,06,17,12,51,20.30
2018,06,17,12,52,20.40
2018,06,17,12,53,20.60
2018,06,17,12,54,20.70
2018,06,17,12,55,20.80
2018,06,17,12,56,20.90
2018,06,17,12,57,21.00
2018,06,17,12,58,21.10
2018,06,17,12,59,21.20
2018,06,17,13,00,21.20
2018,06,17,13,01,21.30
2018,06,17,13,02,21.40
2018,06,17,13,03,21.50
2018,06,17,13,04,21.60
2018,06,17,13,05,21.60
2018,06,17,13,06,21.70
2018,06,17,13,07,21.80
2018,06,17,13,08,21.80
2018,06,17,13,09,21.90
2018,06,17,13,10,22.00
2018,06,17,13,11,22.00
2018,06,17,13,12,22.10
2018,06,17,13,13,22.10
2018,06,17,13,14,22.10
2018,06,17,13,15,22.00
2018,06,17,13,16,22.00
2018,06,17,13,17,21.90
2018,06,17,13,18,21.80
2018,06,17,13,19,21.70
2018,06,17,13,20,21.70
2018,06,17,13,21,21.70
2018,06,17,13,22,21.70
2018,06,17,13,23,21.70
2018,06,17,13,24,21.70
2018,06,17,13,25,21.60
2018,06,17,13,26,21.60
2018,06,17,13,27,21.60
2018,06,17,13,28,21.60
2018,06,17,13,29,21.60
2018,06,17,13,30,21.60
2018,06,17,13,31,21.60
2018,06,17,13,32,21.60
2018,06,17,13,33,21.70
2018,06,17,13,34,21.70
2018,06,17,13,35,21.80
2018,06,17,13,36,21.80
2018,06,17,13,37,21.80
2018,06,17,13,38,21.90
2018,06,17,13,39,21.90
2018,06,17,13,40,22.00
2018,06,17,13,41,22.00
2018,06,17,13,42,22.00
2018,06,17,13,43,22.00
2018,06,17,13,44,22.00
2018,06,17,13,45,22.00
2018,06,17,13,46,22.00
2018,06,17,13,47,21.90
2018,06,17,13,48,21.90
2018,06,17,13,49,21.90
2018,06,17,13,50,21.90
2018,06,17,13,51,21.80
2018,06,17,13,52,21.80
2018,06,17,13,53,21.80
2018,06,17,13,54,21.70
2018,06,17,13,55,21.70
2018,06,17,13,56,21.70
2018,06,17,13,57,21.60
2018,06,17,13,58,21.60
2018,06,17,13,59,21.60
2018,06,17,14,00,21.60
2018,06,17,14,01,21.50
2018,06,17,14,02,21.50
2018,06,17,14,03,21.50
2018,06,17,14,04,21.50
2018,06,17,14,05,21.50
2018,06,17,14,06,21.50
2018,06,17,14,07,21.50
2018,06,17,14,08,21.50
2018,06,17,14,09,21.60
2018,06,17,14,10,21.60
2018,06,17,14,11,21.60
2018,06,17,14,12,21.60
2018,06,17,14,13,21.60
2018,06,17,14,14,21.60
2018,06,17,14,15,21.60
2018,06,17,14,16,21.70
2018,06,17,14,17,21.70
2018,06,17,14,18,21.70
2018,06,17,14,19,21.80
2018,06,17,14,20,21.80
2018,06,17,14,21,21.80
2018,06,17,14,22,21.80
2018,06,17,14,23,21.80
2018,06,17,14,24,21.80
2018,06,17,14,25,21.80
2018,06,17,14,26,21.80
2018,06,17,14,27,21.80
2018,06,17,14,28,21.80
2018,06,17,14,29,21.90
2018,06,17,14,30,21.90
2018,06,17,14,31,21.90
2018,06,17,14,32,21.90
2018,06,17,14,33,21.90
2018,06,17,14,34,22.00
2018,06,17,14,35,22.00
2018,06,17,14,36,22.00
2018,06,17,14,37,22.00
2018,06,17,14,38,22.00
2018,06,17,14,39,22.00
2018,06,17,14,40,22.00
2018,06,17,14,41,22.10
2018,06,17,14,42,22.10
2018,06,17,14,43,22.10
2018,06,17,14,44,22.10
2018,06,17,14,45,22.10
2018,06,17,14,46,22.10
2018,06,17,14,47,22.10
2018,06,17,14,48,22.00
2018,06,17,14,49,22.00
2018,06,17,14,50,22.00
2018,06,17,14,51,22.00
2018,06,17,14,52,22.00
2018,06,17,14,53,22.00
2018,06,17,14,54,22.00
2018,06,17,14,55,22.00
2018,06,17,14,56,22.10
2018,06,17,14,57,22.10
2018,06,17,14,58,22.10
2018,06,17,14,59,22.10
2018,06,17,15,00,22.10
2018,06,17,15,01,22.10
2018,06,17,15,02,22.10
2018,06,17,15,03,22.10
2018,06,17,15,04,22.20
2018,06,17,15,05,22.20
2018,06,17,15,06,22.20
2018,06,17,15,07,22.20
2018,06,17,15,08,22.20
2018,06,17,15,09,22.20
2018,06,17,15,10,22.20
2018,06,17,15,11,22.20
2018,06,17,15,12,22.30
2018,06,17,15,13,22.30
2018,06,17,15,14,22.30
2018,06,17,15,15,22.30
2018,06,17,15,16,22.30
2018,06,17,15,17,22.30
2018,06,17,15,18,22.30
2018,06,17,15,19,22.30
2018,06,17,15,20,22.30
2018,06,17,15,21,22.30
2018,06,17,15,22,22.30
2018,06,17,15,23,22.30
2018,06,17,15,24,22.40
2018,06,17,15,25,22.40
2018,06,17,15,26,22.40
2018,06,17,15,27,22.40
2018,06,17,15,28,22.40
2018,06,17,15,29,22.40
2018,06,17,15,30,22.40
2018,06,17,15,31,22.50
2018,06,17,15,32,22.50
2018,06,17,15,33,22.50
2018,06,17,15,34,22.50
2018,06,17,15,35,22.50
2018,06,17,15,36,22.60
2018,06,17,15,37,22.60
2018,06,17,15,38,22.60
2018,06,17,15,39,22.60
2018,06,17,15,40,22.60
2018,06,17,15,41,22.60
2018,06,17,15,42,22.70
2018,06,17,15,43,22.70
2018,06,17,15,44,22.70
2018,06,17,15,45,22.70
2018,06,17,15,46,22.70
2018,06,17,15,47,22.70
2018,06,17,15,48,22.70
2018,06,17,15,49,22.70
2018,06,17,15,50,22.70
2018,06,17,15,51,22.70
2018,06,17,15,52,22.70
2018,06,17,15,53,22.70
2018,06,17,15,54,22.70
2018,06,17,15,55,22.70
2018,06,17,15,56,22.70
2018,06,17,15,57,22.70
2018,06,17,15,58,22.70
2018,06,17,15,59,22.70
2018,06,17,16,00,22.70
2018,06,17,16,01,22.60
2018,06,17,16,02,22.60
2018,06,17,16,03,22.60
2018,06,17,16,04,22.60
2018,06,17,16,05,22.60
2018,06,17,16,06,22.60
2018,06,17,16,07,22.60
2018,06,17,16,08,22.60
2018,06,17,16,09,22.60
2018,06,17,16,10,22.60
2018,06,17,16,11,22.60
2018,06,17,16,12,22.60
2018,06,17,16,13,22.60
2018,06,17,16,14,22.60
2018,06,17,16,15,22.60
2018,06,17,16,16,22.70
2018,06,17,16,17,22.70
2018,06,17,16,18,22.70
2018,06,17,16,19,22.70
2018,06,17,16,20,22.70
2018,06,17,16,21,22.70
2018,06,17,16,22,22.70
2018,06,17,16,23,22.70
2018,06,17,16,24,22.70
2018,06,17,16,25,22.70
2018,06,17,16,26,22.70
2018,06,17,16,27,22.70
2018,06,17,16,28,22.70
2018,06,17,16,29,22.60
2018,06,17,16,30,22.70
2018,06,17,16,31,22.70
2018,06,17,16,32,22.70
2018,06,17,16,33,22.70
2018,06,17,16,34,22.70
2018,06,17,16,35,22.80
2018,06,17,16,36,22.80
2018,06,17,16,37,22.80
2018,06,17,16,38,22.80
2018,06,17,16,39,22.80
2018,06,17,16,40,22.80
2018,06,17,16,41,22.80
2018,06,17,16,42,22.80
2018,06,17,16,43,22.80
2018,06,17,16,44,22.80
2018,06,17,16,45,22.80
2018,06,17,16,46,22.80
2018,06,17,16,47,22.80
2018,06,17,16,48,22.80
2018,06,17,16,49,22.80
2018,06,17,16,50,22.80
2018,06,17,16,51,22.70
2018,06,17,16,52,22.60
2018,06,17,16,53,22.60
2018,06,17,16,54,22.50
2018,06,17,16,55,22.30
2018,06,17,16,56,22.20
2018,06,17,16,57,22.10
2018,06,17,16,58,22.00
2018,06,17,16,59,21.90
2018,06,17,17,00,21.80
2018,06,17,17,01,21.80
2018,06,17,17,02,21.70
2018,06,17,17,03,21.70
2018,06,17,17,04,21.60
2018,06,17,17,05,21.60
2018,06,17,17,06,21.60
2018,06,17,17,07,21.60
2018,06,17,17,08,21.60
2018,06,17,17,09,21.60
2018,06,17,17,10,21.60
2018,06,17,17,11,21.60
2018,06,17,17,12,21.60
2018,06,17,17,13,21.60
2018,06,17,17,14,21.70
2018,06,17,17,15,21.70
2018,06,17,17,16,21.60
2018,06,17,17,17,21.50
2018,06,17,17,18,21.50
2018,06,17,17,19,21.40
2018,06,17,17,20,21.30
2018,06,17,17,21,21.30
2018,06,17,17,22,21.20